Location: Buckland
(65.9785°N, 161.1281°W)
Time: 13:57:59
(UTC+00:00)

PRISM - Pass Details

Date: 17 January 2021
Orbit: 565 x 584 km, 98.2° (Epoch: 04 March)

Event Time Altitude Azimuth Distance (km) Brightness Sun altitude
Rises 17:39:06 0° 32° (NNE) 2,782 ? -14.4°
Reaches altitude 10° 17:42:30 10° 1° (N) 1,884 ? -14.0°
Maximum altitude 17:44:01 12° 339° (NNW) 1,761 ? -13.9°
Enters shadow 17:44:08 12° 337° (NNW) 1,762 ? -13.9°
